User: anonymous
Location: Unspecified
(0.0000°N, 0.0000°E)
Time: 01:45:17
(UTC+00:00)
Language:

A-11 Canister half - Orbit

View from above orbital plane
View from above orbital plane
View from above satellite
View from above satellite

Ground track
Ground track

The orbit data is extracted from the following two-line orbital elements,

1 00053U 60009E   14259.17595705 -.00000085  00000-0  00000+0 0  5644
2 00053 047.2749 258.4947 0099184 351.4345 132.3851 12.17147356412634
Epoch (UTC): 16 September 2014 04:13:22
Eccentricity: 0.0099184
inclination: 47.2749°
perigee height: 1526 km
apogee height: 1684 km
right ascension of ascending node: 258.4947°
argument of perigee: 351.4345°
revolutions per day: 12.17147356
mean anomaly at epoch: 132.3851°
orbit number at epoch: 41263

The dashed part of the orbit path shows where the satellite is in the earth's shadow,  

DLR